Showing default

TEMISAT, 22783

Orbit data source: Space-Track

TEMISAT, 22783 is a payload satellite owned by Telespazio (IT) in LEO that was launched on Tue, 31 Aug 1993 UTC via a TSIKLON-3 launch vehicle from the Plesetsk Missile And Space Complex (PKMTR). Payload-class satellites include a variety of spacecraft equipped with specific instruments for various scientific and technological missions. These include communications satellites like Starlink; space stations such as the ISS; scientific satellites like the Hubble; Earth observation satellites from companies like Planet Labs, Umbra, and HawkEye 360; GPS; miniature CubeSats for education and research; and military/defense satellites.

Loading next visibility...
Identifier
22783, 1993-055B
Orbit
LEO
Last TLE update
17 hours ago
Origin
Manufacturer
Kayser-Threde
Mission
Commercial Communications
Bus & Motor
TEMISAT, Unknown motor
Mass
~42 kg wet, ~42 kg dry
Launch date (UTC)
1993-08-31 (32 years ago)
Launch vehicle
TSIKLON-3
Launch site
Plesetsk Missile And Space Complex (PKMTR)
Object type
Payload
Rocket body
Debris
Shape & HBR
Hex Poly, 0.35 m
Radar Cross Section
0.140 m², Medium (>0.1 m² and < 1m²)

Expand to show TLE details & history

TLE from 17 hours ago
0 TEMISAT
1 22783U 93055B   25191.57862983  .00000047  00000-0  28504-4 0  9994
2 22783  82.5494 209.0078 0024242  87.5770 272.8165 13.83867202608465
Epoch: 2025-07-10T13:53Z
TLE epoch observation values (Epoch: 2025-07-10T13:53:13.617Z)
Latitude
-0.00002°
Longitude
71.95817°
Altitude
952.274 km
Speed
7.376 km/s
True Right ascension
13h 56m 01s
True Declination
0° 00' 00"
Sunlit
Object was in daylight at epoch
Visualization orbit readout
Latitude
-35.94244°
Longitude
-103.18028°
Altitude
975.278 km
Speed
7.357 km/s
Apparent Right ascension
04h 17m 23s
Apparent Declination
-42° 56' 23"
Sunlit
Object is in daylight
Visualization observer readout
Local Sidereal Time
18:49:48
Azimuth
108.693° ESE
Elevation
-61.518°
Doppler factor
1
Orbital elements
Apogee altitude
965.113 km
Perigee altitude
929.596 km
Semi-major axis
7,325.491 km
Eccentricity
0.00242
Inclination
82.5494°
RAAN
209.0078°
Arg. of periapsis
87.577°
True anomaly
Unknown
Mean anomaly
272.8165°
Eccentric anomaly
Unknown
Mean motion
3.46169 °/min
Orbital period
104 mins
BSTAR
0.000028504
Loading maneuver chart data...
Loading SW <> Apogee altitude chart data...
Loading historical data...
Loading historical data...
Loading historical data...
Loading historical data...
Loading historical data...
Loading historical data...
Loading historical data...
Other satellites on launch #55 in the year 1993 (1993-08-31 UTC)

TEMISAT Visibility forecast

Observer location: undefined°, undefined°

Span
Click to sort rows by Start time (UTC) header in descending order
Start Az.
Max El. time (UTC)
Max El. Az.
Max El.
End time (UTC)
End Az.
10 mins2025-07-11 13:02:33.929Z354.11° N2025-07-11 13:06:33.929Z15.456° NNE44.549°2025-07-11 13:12:33.929Z172.371° S
8 mins2025-07-12 00:43:33.929Z128.166° SE2025-07-12 00:46:33.929Z92.846° ESE21.89°2025-07-12 00:51:33.929Z35.413° NE
9 mins2025-07-12 02:27:33.929Z217.42° SW2025-07-12 02:31:33.929Z282.285° WNW35.758°2025-07-12 02:36:33.929Z352.555° N
|